Tracking 19706 objects as of 16-Jun-2019
HD Live streaming from Space Station
objects crossing your sky now

COSMOS 1980

Track COSMOS 1980 now!
10-day predictions
COSMOS 1980 is classified as:


NORAD ID: 19649
Int'l Code: 1988-102A
Perigee: 845.0 km
Apogee: 856.0 km
Inclination: 71.0 °
Period: 101.8 minutes
Semi major axis: 7221 km
RCS: 11.2405 m2 (large)
Launch date: November 23, 1988
Source: Commonwealth of Independent States (former USSR) (CIS)
Launch site: TYURATAM MISSILE AND SPACE COMPLEX (TTMTR)
aabbcc
Your satellite tracking list
Your tracking list is empty




NASA's NSSDC Master Catalog

Two Line Element Set (TLE):
1 19649U 88102A   19166.91728005 -.00000054 +00000-0 -34394-5 0  9992
2 19649 071.0010 336.2816 0007625 282.4750 077.5519 14.14703745577365
Source of the keplerian elements: AFSPC